GFSSW_con_lsi_159.txt.gz
Lid_Strength_Index
-1 -1 -1 -2 -2 -2 -2 -1 -1 -1 -1 -1 -1 -1 -1 -1 -1 1 4 2 0 -1 -0 0 1 1 1 3 3 4 9 10 9 9 8 6 7 6 5 5 4 4 4 3 2
-0 -0 -1 -1 -2 -2 -2 -1 -1 -1 -1 -1 -1 -1 -1 -1 1 3 -0 -0 -0 -1 1 2 3 3 4 4 4 6 9 9 6 6 7 7 6 6 6 6 5 5 3 2 2
0 -0 -0 -1 -1 -1 -1 -1 -1 -1 -1 -1 -1 -1 -1 -1 3 3 -2 -2 -2 -1 1 1 2 3 5 4 5 6 9 6 6 6 5 6 7 6 7 7 6 5 4 3 3
1 0 -0 -1 -1 -1 -1 -1 -1 -1 -1 -1 -1 -1 -1 0 10 1 -1 -2 -2 -1 1 2 4 6 6 7 5 8 6 6 6 6 6 7 5 7 6 5 5 4 3 3 3
1 1 0 -0 -0 -1 -1 -1 -1 -1 -1 -1 -1 -1 0 5 5 -1 -2 -1 -1 0 2 3 5 5 7 7 6 7 6 6 5 6 6 6 6 6 6 5 5 5 4 3 3
1 1 1 0 0 -1 -1 -1 -1 -1 -1 -1 -1 -1 2 8 -0 -1 -1 -0 0 1 2 3 4 3 5 6 7 6 6 6 5 6 6 7 6 6 5 4 4 6 5 4 4
1 1 1 1 -0 -0 -1 -1 -1 -1 -1 -1 -2 -0 4 5 -0 -1 -0 0 0 1 3 2 2 4 4 7 5 6 8 7 6 6 7 6 8 8 5 4 5 4 4 4 4
-0 0 0 0 -0 -1 -1 -1 -1 -1 -1 -1 -1 1 6 -0 -1 0 -0 1 -0 0 1 1 1 4 5 5 7 8 7 11 8 6 6 7 11 6 4 5 5 5 4 3 3
-0 -0 -0 -1 -0 -1 -1 -1 -1 -1 -1 -1 1 3 7 0 2 0 0 3 2 1 1 1 2 5 6 8 10 9 11 10 10 6 7 8 9 6 4 5 5 5 4 4 3
-1 -1 -1 -1 -1 -1 -1 -1 -1 -1 -0 -0 1 6 5 6 2 1 0 1 3 3 5 5 6 8 8 10 14 11 12 10 10 8 7 8 9 7 6 5 5 5 4 4 4
-1 -1 -1 -1 -1 -1 -0 1 4 6 4 7 6 6 5 3 1 3 1 3 3 5 9 7 10 13 10 9 8 8 10 10 8 7 8 9 9 8 7 6 6 5 5 4 4
-1 -1 -1 -1 -2 -1 -0 4 4 3 8 6 5 4 3 2 6 4 1 6 7 10 8 10 13 8 7 8 9 9 11 10 8 7 9 9 9 7 7 7 6 6 6 5 4
-1 -0 -1 -1 -1 -0 2 3 1 1 9 8 6 5 4 3 6 6 4 5 8 9 9 11 9 7 8 10 11 10 11 11 11 9 8 10 11 9 7 6 5 5 5 5 5
-1 -1 -1 -1 1 1 3 0 0 1 12 11 9 6 4 4 8 3 3 5 8 10 9 9 7 8 9 10 10 13 9 10 11 12 15 9 15 9 7 7 7 6 5 5 5
-1 -1 -1 -1 2 3 1 0 1 3 20 9 8 3 4 7 6 6 3 5 9 9 9 11 9 10 11 10 8 11 8 10 10 12 13 13 15 12 8 9 8 7 5 4 4
-1 -1 -1 0 1 1 -1 0 2 14 20 12 8 9 9 7 7 6 7 5 5 8 8 8 7 8 8 8 8 8 10 10 11 12 18 13 13 14 11 9 8 6 5 5 4
-1 -1 -0 -0 4 -1 -0 4 14 18 11 13 12 10 10 10 9 9 10 11 13 15 15 12 11 8 7 10 8 9 12 18 19 19 18 11 12 13 9 8 8 7 6 5 4
-1 -1 -0 -0 -1 -1 2 10 18 13 14 10 10 10 12 9 10 10 11 13 10 10 13 16 17 11 8 9 11 11 12 16 20 18 15 12 15 12 8 6 6 5 5 4 4
-1 1 1 1 -1 0 7 15 15 13 11 12 10 14 13 10 11 11 12 12 10 9 13 15 15 9 8 7 8 12 14 9 14 15 16 13 11 9 8 8 6 6 5 5 4
2 3 3 -0 -1 3 10 13 12 8 8 9 14 12 15 13 12 12 13 10 11 8 7 10 14 11 9 8 8 10 8 16 16 20 20 14 13 13 10 9 7 6 6 5 5
2 7 2 -0 1 7 13 12 11 7 7 10 11 13 12 13 11 12 12 9 9 8 7 8 11 13 11 13 13 13 13 12 12 13 17 17 13 8 8 8 8 7 6 5 5
4 10 2 1 9 9 12 10 8 8 7 8 8 10 11 11 12 12 12 10 7 8 11 9 12 15 14 10 8 9 11 11 15 17 14 15 14 7 7 7 7 6 6 5 5
7 7 2 3 12 12 9 10 9 9 9 9 10 9 8 11 14 11 10 7 7 9 11 10 13 17 16 13 10 13 11 10 10 11 15 17 14 7 7 7 7 7 6 5 5
6 10 7 6 7 10 11 11 12 8 8 8 9 8 10 11 10 12 11 9 7 8 7 8 12 13 16 13 11 13 12 10 11 15 14 14 11 10 8 8 7 6 6 6 5
6 9 7 12 10 10 9 10 12 12 9 7 10 9 10 13 12 13 10 10 8 7 8 10 15 12 11 12 11 12 12 11 12 12 14 12 11 9 8 7 7 6 6 5 6
8 9 7 9 8 9 9 11 11 11 10 11 11 9 9 12 11 13 10 10 11 9 10 9 14 13 14 12 12 13 12 11 11 11 11 10 10 7 6 6 6 6 5 6 7
4 4 6 8 9 10 10 10 11 9 8 8 8 9 10 9 6 6 7 8 8 10 11 12 13 14 17 13 13 16 13 12 10 9 10 12 9 7 7 6 6 5 5 6 6

GFSSW_con_lsi_162.txt.gz
Lid_Strength_Index
-0 -1 -1 -1 -1 -2 -2 -1 -1 -1 -1 -1 -1 -1 -0 0 0 2 4 2 -0 -2 -1 0 1 2 2 3 3 3 10 12 10 10 9 7 8 7 7 7 7 5 5 4 2
-0 -1 -1 -1 -1 -1 -2 -1 -1 -1 -2 -1 -1 -1 -1 -1 2 4 0 -1 -1 -1 1 3 4 2 5 4 5 7 11 10 7 8 8 7 8 8 8 8 7 6 4 3 2
0 -0 -0 -1 -1 -1 -1 -1 -1 -1 -1 -1 -1 -1 -1 -1 4 4 -1 -1 -1 -0 1 2 2 3 6 5 6 7 10 7 7 7 7 7 8 7 8 9 7 7 5 4 4
1 0 0 -1 -1 -1 -1 -1 -1 -1 -1 -1 -1 -1 -1 1 10 2 -1 -2 -2 0 2 3 4 6 7 8 5 9 7 6 6 7 7 7 7 8 8 8 6 6 4 4 4
1 1 0 -0 -1 -1 -1 -1 -1 -1 -1 -1 -1 -1 1 5 5 0 -2 -1 -1 1 3 4 5 6 8 8 7 8 7 6 6 6 6 6 7 8 7 6 7 6 4 4 4
2 1 1 1 -0 -0 -1 -1 -1 -1 -1 -1 -1 -1 3 9 -0 -1 -0 -0 1 2 3 3 4 4 6 7 8 7 7 6 6 6 6 7 7 6 7 5 6 6 7 5 4
1 2 1 1 0 -0 -0 -1 -1 -1 -1 -1 -1 -0 4 5 -0 -1 -0 1 0 1 3 2 2 5 5 8 5 6 9 7 8 7 8 7 9 9 6 5 6 6 7 6 6
0 1 1 1 1 0 -0 -1 -1 -1 -1 -1 -1 1 6 0 -1 0 0 1 0 0 2 1 2 4 6 5 7 9 9 13 9 7 7 8 12 7 5 5 6 6 6 5 5
-0 -0 0 1 0 0 -1 -1 -1 -1 -1 -1 1 3 8 0 2 1 0 3 2 1 1 1 3 6 6 10 12 11 14 12 11 8 8 9 12 8 6 6 6 6 6 6 5
-1 -0 -1 -1 -0 -1 -1 -1 -1 -1 -0 -0 2 6 6 6 2 1 0 1 3 4 5 5 7 9 9 11 15 13 13 11 12 9 8 10 10 8 7 8 7 7 7 6 6
-1 -1 -1 -1 -1 -1 -1 1 4 6 4 6 8 7 6 4 1 3 1 3 4 6 10 8 11 13 11 10 9 10 11 12 10 8 9 10 10 8 7 8 9 8 7 6 6
-1 -1 -1 -1 -2 -2 -0 4 4 3 8 4 6 5 4 3 6 4 2 7 7 11 8 10 13 9 8 9 10 10 12 12 10 8 10 10 11 8 7 8 7 7 7 7 7
-1 -1 -1 -1 -1 -0 2 3 -0 1 8 7 6 6 5 3 7 6 4 6 8 10 10 12 10 8 9 10 11 11 12 12 12 10 10 11 12 10 8 7 6 6 6 6 6
-1 -1 -1 -1 1 1 3 0 -0 1 12 11 8 8 5 4 8 3 3 6 8 11 10 11 8 9 10 11 10 14 10 10 12 13 17 11 18 12 10 9 8 7 7 6 5
-1 -1 -1 -1 2 3 2 -0 -0 3 20 9 8 4 5 7 7 7 3 6 10 10 10 12 10 10 11 11 9 12 9 10 11 14 14 14 16 15 11 11 9 8 7 6 5
-1 -1 -1 0 1 1 -0 -0 2 13 20 13 8 9 9 8 7 6 7 5 6 9 9 10 7 8 9 8 8 8 10 11 11 13 18 14 15 16 13 11 10 9 7 7 6
-1 -1 -0 -0 4 -0 -0 4 14 18 11 13 12 10 10 11 10 9 10 11 13 15 15 12 11 9 8 11 9 10 13 19 20 20 20 13 15 14 11 10 10 9 8 8 6
-1 -1 -0 0 -1 -0 2 10 18 13 13 10 10 10 13 10 10 10 11 13 10 11 14 16 17 11 8 10 12 12 12 18 22 21 19 13 18 15 10 8 8 8 7 6 6
-1 1 1 0 -1 1 7 15 15 13 11 11 11 13 13 11 11 11 12 12 11 9 14 15 15 10 9 8 9 13 15 10 16 18 19 16 15 12 10 10 9 8 8 8 7
2 3 3 -0 -0 3 10 13 12 9 9 10 14 12 15 13 13 12 13 10 11 9 7 11 15 11 10 8 9 10 9 16 15 22 22 18 17 16 13 11 9 9 9 8 7
3 7 2 -0 1 7 13 12 11 7 8 11 12 13 13 14 13 13 13 10 9 9 8 9 12 14 11 13 14 12 13 13 13 15 19 20 17 12 11 11 11 10 8 7 6
4 10 2 1 9 9 12 10 8 8 7 9 9 11 12 12 13 13 13 11 7 8 11 9 13 16 14 10 9 10 12 12 16 18 16 16 16 9 10 9 10 8 7 7 7
7 6 2 3 12 12 9 10 9 10 9 10 11 9 9 12 14 12 11 8 7 8 10 10 14 17 16 13 11 13 12 11 11 13 16 19 15 8 9 11 10 8 8 7 7
6 10 7 6 7 10 11 11 11 8 9 8 9 9 10 12 11 12 11 9 7 8 7 8 13 14 17 15 13 15 13 11 12 16 15 15 13 11 10 10 10 8 8 8 8
6 9 7 11 10 10 9 10 11 12 9 8 10 10 11 13 12 13 11 10 8 8 8 10 15 13 13 13 11 13 13 12 13 13 15 13 13 10 9 9 9 8 8 8 8
8 8 7 9 8 9 9 11 11 10 10 11 12 10 9 12 11 13 11 11 11 9 10 9 14 13 15 12 13 14 12 12 12 12 12 11 12 8 8 9 9 9 8 8 8
3 3 6 8 9 11 10 10 10 9 8 8 9 10 11 9 8 7 7 8 9 10 11 12 13 15 17 14 14 17 15 13 12 10 11 13 10 8 8 8 9 9 7 7 7

GFSSW_con_lsi_165.txt.gz
Lid_Strength_Index
-1 -1 -1 0 -1 -1 -2 -1 -1 -1 -2 -1 -1 -0 -0 0 0 2 4 2 0 -2 -1 2 2 3 4 5 4 5 11 13 11 10 11 9 9 8 8 7 7 5 6 4 2
-0 -1 -1 -1 -1 -1 -1 -2 -1 -1 -2 -1 -1 -1 -0 0 2 4 1 -1 -1 -1 2 4 5 4 6 6 6 8 11 11 9 8 10 9 9 9 9 9 8 6 4 3 3
0 -0 -0 -1 -1 -0 -0 -1 -1 -1 -1 -1 -1 -1 -1 -0 4 5 -0 -2 -1 -0 2 3 3 4 7 7 7 8 11 8 8 7 7 8 9 8 9 10 8 7 6 4 4
1 0 -0 -1 -1 -1 -1 -1 -1 -1 -1 -1 -1 -1 -1 1 11 3 -0 -2 -1 1 2 4 5 8 9 9 7 10 8 7 6 8 8 9 8 9 9 9 7 6 4 4 4
1 1 0 -0 -0 -1 -1 -1 -1 -1 -1 -1 -1 -1 1 5 5 1 -1 -1 0 2 4 5 6 8 10 9 9 9 8 7 6 6 8 8 9 9 8 7 7 4 4 4 4
1 1 1 0 0 -0 -1 -1 -1 -1 -1 -1 -1 -1 3 8 0 -0 -0 0 1 2 3 5 6 6 8 9 10 9 8 7 7 7 7 8 8 7 7 6 7 6 5 4 4
0 1 1 1 0 0 -0 -1 -1 -1 -1 -2 -2 -0 4 5 0 0 -0 1 1 2 4 3 3 6 7 9 7 7 10 9 8 7 8 7 10 9 6 5 6 7 8 6 4
-0 -0 0 1 1 0 -0 -1 -1 -1 -1 -2 -2 1 6 1 0 0 0 1 1 1 2 2 2 5 7 6 8 10 10 13 9 9 7 8 13 8 6 6 6 6 8 8 7
-1 -0 -1 -0 0 0 -0 -1 -1 -1 -1 -2 2 4 8 1 3 1 1 3 2 2 2 1 3 7 7 10 13 12 15 13 12 9 9 9 12 8 7 8 8 7 6 7 6
-1 -1 -1 -1 -1 -0 -1 -1 -1 -1 -0 -0 2 6 7 7 3 1 1 1 4 4 5 6 7 10 10 12 17 15 14 12 13 11 11 10 11 8 8 9 9 9 7 7 7
-1 -1 -1 -1 -1 -1 -0 1 4 5 4 6 7 9 8 5 2 3 2 3 4 6 10 8 12 13 12 10 10 11 12 13 11 9 9 10 10 9 9 9 9 10 9 8 7
-1 -1 -1 -1 -1 -2 -0 4 4 3 8 4 5 6 5 4 6 4 2 7 8 11 9 11 13 10 9 9 10 11 12 13 10 9 10 11 11 9 7 7 8 8 8 8 7
-1 -1 -1 -2 -2 -0 3 3 -0 1 8 7 5 6 6 4 7 7 4 6 9 10 11 12 10 8 9 11 12 12 13 13 12 10 10 12 13 11 9 7 7 7 7 7 7
-2 -2 -1 -2 1 2 4 1 0 1 12 11 9 6 5 4 8 3 3 6 8 11 10 11 8 10 11 12 11 14 10 11 12 13 17 12 18 14 11 10 9 8 7 7 7
-1 -1 -2 -2 3 4 3 1 0 3 20 9 9 3 4 8 7 7 3 6 10 10 10 12 11 11 12 11 10 12 9 11 12 14 16 16 17 16 12 13 11 9 9 8 6
-1 -1 -1 0 1 2 1 0 2 13 20 13 9 9 9 8 8 6 7 5 6 10 9 10 7 8 10 8 9 8 11 11 11 13 18 15 15 18 14 12 11 10 8 8 7
-1 -1 -0 -0 4 0 0 4 13 18 11 13 12 10 10 11 10 9 10 11 12 15 15 12 12 9 8 11 9 10 13 19 20 20 19 15 16 15 13 12 11 10 10 9 8
-1 -1 -0 0 -0 -0 2 9 17 13 13 10 10 10 12 10 11 10 11 13 10 11 14 16 17 11 9 10 12 12 13 18 22 21 20 15 18 16 11 10 10 10 9 8 9
-1 1 1 1 -0 0 7 15 15 13 11 11 11 14 13 11 11 11 12 12 10 10 14 15 15 11 9 9 9 13 15 11 16 22 20 18 16 13 11 11 11 9 9 9 9
2 3 3 -0 -0 3 10 13 12 9 9 10 14 12 15 13 13 13 13 10 11 9 9 12 16 12 10 9 9 11 9 16 15 21 24 19 19 17 14 12 10 11 10 9 8
3 6 3 -0 1 7 13 12 11 8 8 11 12 13 12 13 12 13 13 11 9 9 8 10 12 14 11 13 13 12 14 13 13 15 19 21 19 13 12 12 11 11 9 8 8
4 11 2 1 9 9 12 10 7 9 7 9 10 11 12 12 12 13 13 11 7 8 12 10 13 16 14 12 11 10 12 13 16 17 15 16 17 12 12 11 10 10 9 8 7
7 7 2 3 12 12 9 10 9 9 9 10 11 10 10 12 14 12 11 8 7 9 11 10 14 17 16 13 11 13 12 11 12 13 16 18 16 9 10 11 11 9 8 8 8
6 10 7 6 7 9 11 11 11 8 9 8 9 9 11 12 11 13 12 9 8 8 7 8 13 14 17 15 13 15 13 12 12 16 15 15 13 11 11 11 11 9 8 9 9
6 9 9 11 10 9 9 10 11 12 9 8 10 10 12 14 12 13 11 10 9 8 9 10 14 13 12 14 12 13 13 13 14 13 16 13 13 11 9 10 10 9 10 10 9
8 9 7 9 8 10 9 11 11 10 10 11 11 10 10 12 12 13 11 11 12 9 10 9 14 13 16 14 14 14 12 12 12 12 12 12 12 8 8 9 10 10 10 9 9
3 4 7 8 9 10 10 10 10 9 8 8 8 10 11 10 8 8 7 8 9 10 11 12 13 15 17 14 16 16 13 12 12 11 11 14 11 8 8 9 9 10 9 8 9

GFSSW_con_lsi_168.txt.gz
Lid_Strength_Index
-1 -1 -1 -1 0 -0 -2 -2 -1 -2 -2 0 -1 -0 -0 0 1 2 5 2 0 -2 -1 2 4 5 6 6 5 6 11 13 12 11 11 10 10 9 8 8 6 5 6 4 3
-0 -1 -1 -1 -1 -1 -1 -1 -2 -1 -2 -2 0 -1 -0 0 3 5 1 -1 -1 -1 3 4 5 4 8 8 7 8 11 11 10 10 10 9 9 10 10 9 8 7 4 3 3
0 -0 -1 -1 -1 -1 -1 -0 -0 -1 -1 -1 -1 -1 -1 1 5 5 -0 -1 -1 -0 2 3 4 5 8 8 8 8 11 8 9 9 8 9 10 9 10 11 8 7 6 4 4
0 -0 -0 -0 -1 -1 -1 -1 -1 -1 -1 -1 -1 -1 -1 1 13 4 0 -1 -1 2 3 4 5 8 9 10 8 10 8 8 7 8 8 9 8 10 10 10 8 7 4 4 4
0 0 0 -0 -0 -1 -1 -2 -2 -1 -1 -1 -1 -1 1 5 5 1 -1 -1 2 3 4 5 7 8 10 9 9 10 8 7 7 7 8 8 9 9 9 8 6 4 4 5 4
-1 -1 0 0 0 0 -0 -1 -2 -1 -1 -1 -2 -1 3 9 0 0 -0 1 2 3 4 5 6 7 9 9 10 9 9 8 8 7 7 8 9 8 8 8 7 5 5 5 4
-1 -1 -1 0 1 1 -0 -1 -1 -2 -1 -1 -0 0 4 5 0 -0 -0 1 1 2 5 5 5 7 8 10 7 8 10 9 9 8 8 7 10 9 6 7 7 6 5 5 4
-1 -1 -1 -1 -0 1 0 -0 -1 -1 -2 -1 -2 2 7 1 1 1 0 1 1 1 2 2 3 5 7 8 8 10 11 14 10 9 8 8 12 9 6 7 6 7 8 7 5
-0 -1 -1 -1 -1 -1 0 -0 -1 -1 -2 -1 1 4 9 1 3 2 1 3 2 2 2 2 4 7 8 11 13 12 16 14 12 10 10 9 12 8 8 8 8 8 8 7 7
-1 -0 -1 -1 -1 -1 -1 -1 -0 0 -0 -0 1 6 8 7 3 2 1 1 4 4 5 6 7 10 11 12 17 16 14 14 14 12 12 12 11 10 8 9 9 9 9 9 7
-1 -1 -1 -1 -1 -1 -0 1 5 6 3 6 6 8 8 5 2 3 2 3 4 6 11 8 11 14 12 11 11 11 13 13 13 10 12 13 13 10 9 10 10 10 10 10 9
-1 -1 -2 -1 -1 -1 0 5 5 4 8 4 4 5 5 4 7 4 2 7 8 11 9 11 13 10 9 10 11 11 13 14 11 10 11 11 12 10 9 9 9 9 9 9 9
-2 -2 -2 -2 -2 -0 3 3 1 1 8 7 5 6 5 4 7 7 4 6 9 10 11 12 11 8 10 11 12 12 13 13 13 11 11 12 13 12 9 9 8 8 7 7 8
-2 -2 -1 -2 1 2 4 2 0 0 12 11 8 6 5 4 8 4 3 6 9 11 10 11 8 10 11 12 11 15 10 11 12 14 17 13 18 14 12 11 10 9 8 7 6
-2 -1 -1 -1 3 4 4 1 -0 3 20 9 9 2 4 8 7 7 3 6 10 10 10 12 11 11 12 12 10 13 9 11 12 14 16 16 17 16 13 13 11 9 9 8 7
-2 -1 -1 0 1 2 1 0 2 13 19 12 9 9 9 8 8 7 7 5 6 10 9 11 8 9 10 9 9 9 11 12 12 14 18 15 16 18 15 12 11 11 10 9 9
-1 -1 -1 -0 4 1 0 4 13 18 10 13 12 10 10 11 10 9 10 11 12 15 15 12 11 10 9 11 9 10 13 19 19 19 20 16 16 15 14 12 12 11 10 9 9
-1 -1 -1 0 -0 -0 2 9 17 13 13 10 10 10 13 10 11 10 11 13 10 11 14 16 17 12 10 11 13 12 13 18 22 21 20 16 18 16 12 11 11 10 11 9 10
-1 1 2 0 -1 0 7 15 15 12 10 12 11 13 13 11 11 12 12 12 11 10 14 15 15 11 10 9 9 13 15 11 16 21 20 19 17 14 13 13 11 11 10 10 10
2 3 3 -0 -0 3 10 13 12 9 9 9 14 12 15 13 13 13 13 10 11 9 9 12 16 12 10 9 9 11 10 16 15 22 23 20 19 18 16 13 12 12 11 10 10
3 6 2 -0 1 7 13 12 10 8 7 11 12 13 13 13 12 13 13 11 9 9 8 11 13 14 11 13 13 12 14 13 13 16 19 22 19 15 13 12 11 12 11 10 10
4 10 3 1 9 9 12 10 8 9 7 9 10 11 12 11 13 13 13 11 8 8 12 10 12 16 14 12 11 10 12 12 17 18 16 17 17 13 13 12 12 11 10 10 9
7 7 2 2 12 11 9 10 9 9 9 10 11 10 10 12 14 12 11 8 8 8 11 10 14 18 17 13 12 13 12 11 11 14 16 18 17 10 12 13 12 11 10 9 9
7 10 7 6 7 10 13 11 11 8 9 8 10 9 11 12 10 12 12 9 8 8 7 8 13 14 17 15 13 14 13 12 13 16 15 15 14 12 12 12 11 11 9 9 9
8 12 9 11 10 12 9 10 11 12 9 8 10 10 11 13 13 13 10 10 9 8 9 10 15 13 12 14 12 13 13 13 14 13 15 13 13 11 10 10 11 11 10 9 10
10 10 8 13 9 10 9 11 11 10 10 11 11 10 10 12 12 13 11 11 11 9 10 10 15 13 15 13 13 14 12 12 12 12 12 12 12 8 7 8 10 10 10 10 9
5 5 7 8 9 10 11 11 10 10 9 8 9 10 11 10 8 8 8 8 10 10 11 12 13 15 17 13 15 17 14 13 12 11 11 14 11 8 8 10 9 10 10 9 8

GFSSW_con_lsi_171.txt.gz
Lid_Strength_Index
-1 -1 -1 0 -0 0 -1 -2 -2 -2 -1 0 0 -0 -0 0 0 2 5 3 1 -1 1 5 6 6 7 8 6 8 12 13 12 12 12 10 10 9 8 8 7 6 6 5 3
-0 -1 -1 -1 -1 -1 0 -0 -1 -1 -2 -1 -1 0 -0 1 3 5 1 -1 -2 -2 3 4 7 6 9 9 8 10 13 12 10 10 11 10 10 10 10 8 8 8 6 4 3
-1 -1 -1 -1 -1 -1 -1 -1 -0 -1 -1 -2 -1 -1 -0 1 5 6 0 -1 -2 -0 3 3 4 6 10 10 9 9 12 10 9 9 9 10 10 9 10 11 8 7 6 5 5
-0 -0 -1 -1 -1 -1 -1 -1 -1 -0 -1 -1 -2 -1 -0 2 16 5 0 -0 -1 2 3 4 5 8 9 11 10 11 9 9 8 8 8 10 9 10 10 10 9 7 4 4 5
-1 -0 0 -1 -1 -1 -1 -1 -2 -1 -1 -1 -1 -1 1 6 6 3 -0 -0 2 3 5 6 7 8 10 10 9 9 10 9 8 8 8 8 9 9 9 8 6 4 4 5 4
-1 -1 -1 -0 -0 -0 -0 -1 -1 -2 -1 -2 -2 0 3 8 2 1 1 2 3 4 5 5 7 7 9 10 11 10 9 9 8 8 8 9 9 9 8 8 7 5 5 5 4
-1 -1 -1 -1 -0 0 0 -0 -1 -1 -1 -1 -2 1 6 6 1 1 -0 3 2 3 6 5 5 7 8 10 8 8 11 9 9 9 9 7 10 9 8 8 8 6 6 5 4
-1 -1 -1 -1 -1 -1 -0 0 -1 -1 -1 -1 -2 1 8 2 1 2 1 2 1 1 3 4 4 6 8 8 9 10 11 14 11 8 8 8 13 9 7 8 7 7 8 5 5
-1 -1 -1 -1 -1 -1 -1 -1 -0 -0 -1 -1 1 3 8 2 5 2 1 3 2 2 2 2 4 7 8 11 13 13 17 15 13 10 10 9 12 9 8 7 8 8 8 8 7
-1 -1 -1 -1 -1 -1 -1 -1 -1 1 1 0 1 7 7 7 4 3 2 2 4 4 5 6 7 10 11 13 17 16 16 15 14 13 12 12 11 9 9 10 9 9 10 10 9
-1 -1 -1 -1 -1 -1 0 2 5 7 4 7 6 7 8 5 2 5 2 3 4 6 10 9 12 14 12 11 12 12 14 16 15 12 14 14 14 11 10 10 11 11 11 10 10
-1 -1 -1 -1 -1 -2 1 5 6 4 8 4 5 5 5 4 7 5 2 7 8 11 9 11 13 10 9 10 11 12 13 15 13 12 13 13 14 13 11 11 10 9 9 10 10
-1 -1 -1 -2 -1 0 3 4 1 2 8 7 5 5 5 4 7 6 4 6 9 10 11 12 11 8 10 11 13 12 13 14 14 11 12 13 14 13 11 11 10 10 9 9 9
-1 -1 -1 -1 1 3 5 2 1 2 12 11 8 6 5 5 8 4 3 6 9 11 10 11 8 10 11 12 11 15 10 11 13 14 17 13 19 16 13 12 11 10 9 8 7
-1 -1 -1 -1 3 4 4 1 0 3 20 10 9 3 4 8 7 7 3 6 10 11 10 12 11 11 12 12 10 12 10 11 12 15 16 16 17 17 14 14 13 11 10 9 8
-2 -1 -1 0 1 2 1 1 3 13 19 12 9 9 9 8 8 7 7 5 6 10 10 10 8 9 10 9 9 9 11 12 12 14 18 15 16 19 15 13 12 11 10 10 9
-2 -1 -1 -0 4 0 -0 3 13 17 10 13 12 10 10 11 10 9 10 11 12 15 15 12 11 10 9 12 10 10 13 19 19 20 19 17 16 16 14 13 12 11 11 11 10
-1 -1 -1 0 0 -0 2 9 17 13 14 10 10 10 13 10 11 10 11 13 10 11 13 16 17 12 10 11 13 12 13 18 22 21 20 17 18 16 13 11 11 11 11 10 10
-1 1 3 1 -0 0 7 14 14 12 11 11 11 13 13 11 11 11 12 12 11 10 15 15 15 12 10 10 10 13 15 12 18 24 21 19 18 15 13 13 13 12 12 11 10
2 3 3 0 -0 3 9 13 12 9 9 10 14 12 15 13 13 13 13 10 11 9 9 12 16 12 11 9 9 11 9 16 17 23 25 20 20 19 16 14 13 13 11 10 11
3 6 3 -0 1 6 13 12 10 8 8 10 12 13 12 14 12 13 13 10 9 9 8 11 13 15 11 13 13 12 13 13 13 17 20 22 20 16 14 13 12 12 11 10 10
4 11 3 0 9 9 11 10 8 9 8 9 10 11 12 11 13 13 12 11 8 8 12 10 12 16 14 13 11 10 12 12 16 18 16 18 18 15 14 13 13 12 11 11 10
7 6 2 2 12 11 9 10 9 9 10 10 10 10 9 12 14 11 11 8 8 9 11 9 14 18 17 13 12 13 11 11 11 14 16 19 17 13 13 13 13 12 12 10 11
6 10 7 7 6 12 11 11 11 8 9 8 9 8 11 12 10 13 12 9 8 8 7 8 12 15 17 15 13 15 13 12 12 16 16 15 14 14 14 13 12 12 11 11 11
8 12 8 11 10 11 9 10 11 12 8 8 11 10 11 13 13 13 11 10 9 8 8 10 15 14 13 12 12 13 13 13 14 13 16 13 13 11 10 12 12 11 12 10 10
11 10 10 15 9 12 10 11 11 11 10 11 11 10 9 12 12 13 11 11 11 9 10 9 14 13 15 12 13 14 12 12 12 12 12 12 13 10 9 8 10 10 10 11 10
7 7 8 8 11 11 11 11 10 9 9 8 9 10 11 10 8 7 7 8 9 10 11 12 13 15 17 13 14 17 14 13 12 11 11 15 11 8 8 8 8 10 10 9 9